Location: Ladysmith
(45.4630°N, 91.1040°W)
Time: 15:46:03
(UTC-05:00)

Amateur Radio Satellites - All Passes

Search period start: 30 August 2016 15:16
Search period end: 31 August 2016 15:16
Location: Ladysmith, 45.4630°N, 91.1040°W

Satellite Date Start Highest point End Downlink Frequencies (MHz)
Time Altitude Azimuth
ITUPSAT 1 30 Aug 15:17:23 15:21:58 44° 99° (E) 15:26:32 437.325
ITAMSAT 1 30 Aug 15:20:21 15:25:31 72° 257° (WSW) 15:30:42 435.822/435.867
ISS 30 Aug 15:21:13 15:23:28 17° 225° (SW) 15:25:43 145.825
O/OREOS (USA 219) 30 Aug 15:30:32 15:33:35 18° 310° (NW) 15:36:40 437.305
Gurwin Techsat 1B 30 Aug 15:37:04 15:40:43 19° 269° (W) 15:44:24 435.225
HORYU 2 30 Aug 15:46:48 15:48:47 13° 59° (ENE) 15:50:47 437.375
SWISSCUBE 30 Aug 15:48:36 15:53:23 82° 286° (WNW) 15:58:10 437.505
MOZHAYETS 4 30 Aug 15:51:29 15:54:29 17° 91° (E) 15:57:29
BEESAT 30 Aug 16:05:27 16:10:09 63° 288° (WNW) 16:14:51 436.000
Cubesat XI-IV 30 Aug 16:37:52 16:39:12 11° 53° (NE) 16:40:32 437.490
NOAA 15 30 Aug 16:37:53 16:40:30 14° 55° (NE) 16:43:06 137.62
AO-7 30 Aug 16:42:35 16:50:25 43° 261° (W) 16:58:18 29.400- 29.500
GOMX 1 30 Aug 16:44:52 16:46:49 12° 54° (NE) 16:48:46 467.674
CUTE-I 30 Aug 16:47:22 16:49:50 13° 55° (NE) 16:52:19 437.470
Cosmos 2491 30 Aug 16:49:00 16:54:50 20° 76° (ENE) 17:00:40 435.465 / 435.565
ITUPSAT 1 30 Aug 16:55:47 16:59:33 24° 297° (WNW) 17:03:18 437.325
KKS-1 30 Aug 16:58:11 17:02:37 57° 101° (E) 17:06:59 437.445
YUBILEINY 30 Aug 17:00:52 17:09:25 52° 74° (ENE) 17:17:52 435.215
Cosmos 2504 30 Aug 17:09:13 17:14:19 20° 61° (ENE) 17:19:20 435.465 / 435.565
BEESAT 2 30 Aug 17:16:21 17:19:36 23° 41° (NE) 17:22:51 435.950
CUBESAT XI-V 30 Aug 17:19:58 17:23:20 19° 91° (E) 17:26:42 437.345
HORYU 2 30 Aug 17:20:15 17:24:43 81° 255° (WSW) 17:29:12 437.375
BRITE-PL 30 Aug 17:21:45 17:26:30 44° 69° (ENE) 17:31:38 437.365/2234.400
STARS 30 Aug 17:25:11 17:29:32 54° 101° (E) 17:33:48 437.465
MOZHAYETS 4 30 Aug 17:27:31 17:31:59 54° 288° (WNW) 17:36:28
BEESAT 3 30 Aug 17:27:32 17:31:23 46° 49° (NE) 17:35:13 437.485
SWISSCUBE 30 Aug 17:28:46 17:30:24 12° 304° (NW) 17:32:03 437.505
LilacSat-2 30 Aug 17:36:11 17:39:12 22° 67° (ENE) 17:42:13 437.200
NOAA 18 30 Aug 17:51:43 17:56:52 42° 66° (ENE) 18:02:02 137.9125
PCSat 30 Aug 18:06:22 18:08:19 12° 26° (NNE) 18:10:15 145.827
DOVE 4 30 Aug 18:09:31 18:14:03 30° 66° (ENE) 18:18:38 437.250
Cubesat XI-IV 30 Aug 18:12:59 18:18:16 65° 72° (ENE) 18:23:34 437.490
NOAA 15 30 Aug 18:14:12 18:19:28 84° 74° (ENE) 18:24:47 137.62
GOMX 1 30 Aug 18:18:40 18:23:50 70° 74° (ENE) 18:29:17 467.674
CUTE-I 30 Aug 18:23:43 18:29:03 81° 74° (ENE) 18:34:24 437.470
CINEMA 3 30 Aug 18:28:27 18:31:04 14° 59° (ENE) 18:33:38 145.822/145.860
KKS-1 30 Aug 18:35:51 18:38:45 17° 299° (WNW) 18:41:37 437.445
Cosmos 2491 30 Aug 18:41:40 18:50:24 90° 294° (WNW) 18:59:15 435.465 / 435.565
BEESAT 2 30 Aug 18:53:47 18:57:39 46° 240° (WSW) 19:01:28 435.950
CUBESAT XI-V 30 Aug 18:56:26 19:01:00 51° 289° (WNW) 19:05:34 437.345
YUBILEINY 30 Aug 18:58:08 19:05:57 38° 275° (W) 19:13:42 435.215
BRITE-PL 30 Aug 19:01:01 19:05:12 26° 269° (W) 19:09:38 437.365/2234.400
Cosmos 2504 30 Aug 19:01:26 19:08:41 82° 264° (W) 19:15:52 435.465 / 435.565
STARS 30 Aug 19:02:34 19:05:28 17° 298° (WNW) 19:08:20 437.465
BEESAT 3 30 Aug 19:05:54 19:08:45 19° 247° (WSW) 19:11:36 437.485
HO-68 30 Aug 19:08:15 19:14:53 42° 62° (ENE) 19:21:31 435.675
LilacSat-2 30 Aug 19:09:59 19:13:22 30° 264° (W) 19:16:46 437.200
SEEDS 30 Aug 19:23:37 19:26:43 21° 65° (ENE) 19:29:51 437.485
AIST 1 30 Aug 19:26:42 19:30:06 21° 70° (ENE) 19:33:27
NOAA 18 30 Aug 19:32:46 19:37:37 31° 264° (W) 19:42:29 137.9125
AAUSAT CUBESAT 2 30 Aug 19:45:08 19:48:05 19° 65° (ENE) 19:51:04 437.432
DOVE 4 30 Aug 19:46:38 19:51:33 41° 263° (W) 19:56:35 437.250
PCSat 30 Aug 19:48:07 19:53:16 41° 49° (NE) 19:58:22 145.827
UWE-3 30 Aug 19:50:35 19:53:24 17° 63° (ENE) 19:56:09 435.000/436.395/437.385
CANX-2 30 Aug 19:50:52 19:55:00 63° 74° (ENE) 19:59:10 2200.000
Cubesat XI-IV 30 Aug 19:55:12 19:58:49 18° 269° (W) 20:02:26 437.490
AIST 2 30 Aug 19:55:45 19:59:42 39° 47° (NE) 20:03:38 435.215
COMPASS 1 30 Aug 19:55:49 19:59:27 30° 68° (ENE) 20:03:05 437.405
CUTE 1.7 + AOD 2 30 Aug 19:56:17 20:00:25 62° 74° (ENE) 20:04:35 437.475
NOAA 15 30 Aug 19:57:23 19:59:55 13° 272° (W) 20:02:29 137.62
ZACube-1 30 Aug 19:58:26 20:00:20 13° 61° (ENE) 20:02:16 437.345
CUBEBUG 2 30 Aug 19:58:49 20:02:45 28° 67° (ENE) 20:06:36 437.445
GOMX 1 30 Aug 19:59:03 20:02:28 17° 273° (W) 20:05:59 467.674
STRAND 1 30 Aug 19:59:32 20:04:21 40° 98° (E) 20:09:09 437.568
CINEMA 3 30 Aug 20:02:31 20:07:32 85° 257° (WSW) 20:12:29 145.822/145.860
CUTE-I 30 Aug 20:06:54 20:09:44 14° 271° (W) 20:12:35 437.470
Cosmos 2491 30 Aug 20:42:09 20:48:35 22° 301° (WNW) 20:55:05 435.465 / 435.565
DELFI C3 30 Aug 20:55:13 20:57:57 18° 65° (ENE) 21:00:42 145.870
HO-68 30 Aug 20:55:45 21:02:33 44° 261° (W) 21:09:23 435.675
Oscar 11 30 Aug 20:56:18 21:00:24 45° 71° (ENE) 21:04:31 145.826/435.025
Cosmos 2504 30 Aug 20:57:20 21:00:46 14° 284° (WNW) 21:04:12 435.465 / 435.565
SEEDS 30 Aug 20:58:18 21:02:12 39° 263° (W) 21:06:07 437.485
AIST 1 30 Aug 21:03:45 21:07:51 38° 268° (W) 21:11:54
FUNcube-1 30 Aug 21:08:18 21:12:36 57° 73° (ENE) 21:16:50 145.935
GONETS M04 30 Aug 21:17:30 21:23:27 19° 57° (ENE) 21:29:22
AAUSAT CUBESAT 2 30 Aug 21:19:25 21:23:18 41° 262° (W) 21:27:13 437.432
UWE-3 30 Aug 21:24:57 21:29:25 60° 259° (W) 21:33:49 435.000/436.395/437.385
AUBIESAT-1 30 Aug 21:26:07 21:26:48 10° 51° (NE) 21:27:28 437.475
CANX-2 30 Aug 21:29:25 21:31:17 13° 271° (W) 21:33:11 2200.000
COMPASS 1 30 Aug 21:31:37 21:35:01 25° 266° (W) 21:38:27 437.405
ZACube-1 30 Aug 21:31:39 21:36:04 77° 256° (WSW) 21:40:26 437.345
PCSat 30 Aug 21:31:42 21:36:35 35° 248° (WSW) 21:41:27 145.827
M-CUBED/EXP-1 PRIME 30 Aug 21:32:46 21:35:20 15° 54° (NE) 21:37:53 437.505
AIST 2 30 Aug 21:34:32 21:38:01 26° 245° (WSW) 21:41:29 435.215
CUTE 1.7 + AOD 2 30 Aug 21:34:47 21:36:41 13° 271° (W) 21:38:36 437.475
CUBEBUG 2 30 Aug 21:35:05 21:39:17 33° 264° (W) 21:43:24 437.445
STRAND 1 30 Aug 21:39:02 21:43:22 29° 296° (WNW) 21:47:41 437.568
CINEMA 3 30 Aug 21:44:02 21:45:20 11° 274° (W) 21:46:37 145.822/145.860
HUMSAT D 30 Aug 21:48:10 21:51:54 34° 69° (ENE) 21:55:38 437.325/437.525
PRISM 30 Aug 21:54:31 21:58:42 68° 102° (ESE) 22:02:52 437.425
Cosmos 2499 30 Aug 21:56:13 22:01:12 20° 62° (ENE) 22:06:11 435.465 / 435.565
UNISAT 6 30 Aug 22:12:40 22:14:23 12° 89° (E) 22:16:05 437.425
O/OREOS (USA 219) 30 Aug 22:18:15 22:21:58 24° 53° (NE) 22:25:41 437.305
CUBEBUG 1 30 Aug 22:24:49 22:26:28 12° 58° (ENE) 22:28:06 437.445
DELFI C3 30 Aug 22:28:48 22:32:31 40° 262° (W) 22:36:16 145.870
VELOX 1 30 Aug 22:31:59 22:33:39 12° 58° (ENE) 22:35:19 145.980
Oscar 11 30 Aug 22:33:46 22:36:46 18° 268° (W) 22:39:46 145.826/435.025
SO-50 30 Aug 22:34:34 22:38:27 24° 113° (ESE) 22:42:20 436.795
FUNcube-1 30 Aug 22:46:38 22:49:10 15° 270° (W) 22:51:42 145.935
ANTELSAT 30 Aug 22:47:53 22:51:36 28° 95° (E) 22:55:17 437.575/2403.000
AUBIESAT-1 30 Aug 22:55:49 23:00:25 65° 68° (ENE) 23:04:58 437.475
RS-15 30 Aug 22:56:23 22:58:37 11° 90° (E) 23:00:52 29.354- 29.394
M-CUBED/EXP-1 PRIME 30 Aug 23:04:29 23:09:12 87° 246° (WSW) 23:13:54 437.505
CUSAT 1 30 Aug 23:06:58 23:09:54 33° 91° (E) 23:13:33 437.405
UKube-1 30 Aug 23:09:58 23:12:28 15° 60° (ENE) 23:14:59 .
GONETS M04 30 Aug 23:13:00 23:21:55 79° 80° (E) 23:30:47
TIGRISAT 30 Aug 23:17:28 23:21:41 55° 100° (E) 23:25:51 435.000
AISAT 30 Aug 23:18:32 23:22:33 34° 68° (ENE) 23:26:35 437.250
HUMSAT D 30 Aug 23:24:20 23:27:36 22° 266° (W) 23:30:51 437.325/437.525
ESTCUBE 1 30 Aug 23:24:33 23:28:59 65° 73° (ENE) 23:33:28 437.505/2401.250
PRISM 30 Aug 23:31:26 23:33:29 13° 300° (WNW) 23:35:32 437.425
QB50P1 30 Aug 23:37:58 23:40:22 15° 90° (E) 23:42:44 145.935-145.965
UNISAT 6 30 Aug 23:47:19 23:51:35 67° 286° (WNW) 23:55:49 437.425
POPSAT HIP 1 30 Aug 23:47:53 23:50:51 18° 92° (E) 23:53:47 437.405
Cosmos 2499 30 Aug 23:48:09 23:55:14 81° 264° (W) 00:02:24 435.465 / 435.565
50 SAT 30 Aug 23:52:41 23:56:14 68° 74° (ENE) 23:59:49 437.505
O/OREOS (USA 219) 30 Aug 23:57:12 00:01:35 45° 252° (WSW) 00:05:58 437.305
CUBEBUG 1 30 Aug 23:57:38 00:02:04 87° 260° (W) 00:06:32 437.445
SPROUT 30 Aug 23:58:47 00:02:50 41° 70° (ENE) 00:06:54 437.525
VELOX 1 31 Aug 00:04:58 00:09:25 88° 252° (WSW) 00:13:56 145.980
TISAT 1 31 Aug 00:07:10 00:09:09 13° 60° (ENE) 00:11:09 437.305
DX 1 31 Aug 00:10:05 00:14:27 74° 73° (ENE) 00:18:51 434.975-435.025
DUCHIFAT 1 31 Aug 00:10:45 00:14:24 28° 96° (E) 00:18:01 145.980
SO-50 31 Aug 00:13:56 00:18:40 52° 311° (NW) 00:23:22 436.795
QB50P2 31 Aug 00:18:27 00:22:28 41° 98° (E) 00:26:27 145.880/145.840
POLYITAN 1 31 Aug 00:20:57 00:24:57 41° 98° (E) 00:28:57 437.675
ANTELSAT 31 Aug 00:24:36 00:28:17 28° 293° (WNW) 00:31:57 437.575/2403.000
NANOSAT C BR1 31 Aug 00:26:07 00:30:10 44° 99° (E) 00:34:10 145.865
AUBIESAT-1 31 Aug 00:32:22 00:35:12 16° 264° (W) 00:38:02 437.475
DANDE 31 Aug 00:38:01 00:40:39 57° 283° (WNW) 00:43:44 436.750
M-CUBED/EXP-1 PRIME 31 Aug 00:42:59 00:44:17 11° 267° (W) 00:45:36 437.505
UKube-1 31 Aug 00:43:44 00:48:01 63° 258° (WSW) 00:52:21 .
CUSAT 1 31 Aug 00:50:06 00:52:17 15° 300° (WNW) 00:54:48 437.405
BUGSAT 1 31 Aug 00:50:57 00:54:41 33° 96° (E) 00:58:22 437.445
AISAT 31 Aug 00:55:17 00:59:03 26° 265° (W) 01:02:51 437.250
TIGRISAT 31 Aug 00:55:19 00:57:57 16° 298° (WNW) 01:00:34 435.000
JAS-2 31 Aug 00:56:39 01:03:28 55° 100° (E) 01:10:55 435.910
RS-15 31 Aug 00:56:51 01:07:53 55° 113° (ESE) 01:19:29 29.354- 29.394
ESTCUBE 1 31 Aug 01:03:56 01:06:15 14° 271° (W) 01:08:34 437.505/2401.250
PHONESAT 2.4 31 Aug 01:07:14 01:09:19 17° 160° (SSE) 01:11:23 2401.200-2431.200
GONETS M04 31 Aug 01:11:06 01:17:45 25° 281° (WNW) 01:24:23
QB50P1 31 Aug 01:12:21 01:16:29 54° 288° (WNW) 01:20:35 145.935-145.965
SWISSCUBE 31 Aug 01:21:05 01:24:27 20° 61° (ENE) 01:27:49 437.505
POPSAT HIP 1 31 Aug 01:22:50 01:26:50 43° 289° (WNW) 01:30:48 437.405
SPROUT 31 Aug 01:35:45 01:38:57 20° 267° (W) 01:42:10 437.525
BEESAT 31 Aug 01:37:15 01:41:03 25° 64° (ENE) 01:44:53 436.000
TISAT 1 31 Aug 01:40:00 01:44:15 72° 258° (WSW) 01:48:31 437.305
Cosmos 2499 31 Aug 01:43:54 01:47:06 14° 284° (WNW) 01:50:19 435.465 / 435.565
DUCHIFAT 1 31 Aug 01:46:28 01:50:02 28° 293° (WNW) 01:53:36 145.980
DX 1 31 Aug 01:49:33 01:51:10 12° 271° (W) 01:52:45 434.975-435.025
QB50P2 31 Aug 01:54:54 01:58:00 20° 296° (WNW) 02:01:06 145.880/145.840
POLYITAN 1 31 Aug 01:57:25 02:00:30 20° 296° (WNW) 02:03:33 437.675
SO-50 31 Aug 01:57:47 02:00:14 14° 333° (NNW) 02:02:40 436.795
NANOSAT C BR1 31 Aug 02:02:37 02:05:35 19° 296° (WNW) 02:08:32 145.865
Oscar 19 31 Aug 02:08:43 02:13:39 41° 98° (E) 02:18:33 437.125/150
Gurwin Techsat 1B 31 Aug 02:09:47 02:13:46 21° 92° (E) 02:17:43 435.225
ITUPSAT 1 31 Aug 02:26:03 02:30:46 67° 73° (ENE) 02:35:31 437.325
BUGSAT 1 31 Aug 02:26:37 02:29:55 24° 294° (WNW) 02:33:11 437.445
JAS-2 31 Aug 02:42:13 02:48:14 35° 296° (WNW) 02:54:49 435.910
PHONESAT 2.4 31 Aug 02:42:29 02:45:11 30° 177° (S) 02:47:53 2401.200-2431.200
AO-7 31 Aug 02:53:05 02:54:28 10° 83° (E) 02:55:51 29.400- 29.500
MOZHAYETS 4 31 Aug 02:55:27 02:58:54 22° 64° (ENE) 03:02:22
Cosmos 2491 31 Aug 02:55:38 02:58:31 12° 48° (NE) 03:01:23 435.465 / 435.565
SWISSCUBE 31 Aug 02:57:12 03:01:51 55° 259° (W) 03:06:32 437.505
RS-15 31 Aug 03:08:58 03:20:27 57° 318° (NW) 03:32:33 29.354- 29.394
BEESAT 31 Aug 03:14:06 03:18:37 42° 262° (W) 03:23:08 436.000
ITAMSAT 1 31 Aug 03:31:07 03:35:49 34° 97° (E) 03:40:29 435.822/435.867
Oscar 19 31 Aug 03:48:23 03:52:48 29° 296° (WNW) 03:57:12 437.125/150
Gurwin Techsat 1B 31 Aug 03:48:52 03:54:05 56° 289° (WNW) 03:59:15 435.225
KKS-1 31 Aug 03:57:58 04:02:26 69° 73° (ENE) 04:06:56 437.445
ITUPSAT 1 31 Aug 04:06:23 04:09:04 15° 270° (W) 04:11:46 437.325
AO-85 31 Aug 04:13:04 04:17:19 25° 113° (ESE) 04:21:23 145.980
YUBILEINY 31 Aug 04:17:23 04:18:01 10° 68° (ENE) 04:18:40 435.215
PHONESAT 2.4 31 Aug 04:18:39 04:21:07 23° 194° (SSW) 04:23:35 2401.200-2431.200
STARS 31 Aug 04:23:32 04:27:55 64° 73° (ENE) 04:32:20 437.465
CUBESAT XI-V 31 Aug 04:25:21 04:29:03 24° 65° (ENE) 04:32:46 437.345
MOZHAYETS 4 31 Aug 04:31:26 04:35:47 44° 261° (W) 04:40:10
AO-7 31 Aug 04:40:50 04:49:02 59° 103° (ESE) 04:57:10 29.400- 29.500
Cosmos 2491 31 Aug 04:49:21 04:57:58 52° 74° (ENE) 05:06:30 435.465 / 435.565
HORYU 2 31 Aug 05:10:07 05:12:52 16° 91° (E) 05:15:36 437.375
ITAMSAT 1 31 Aug 05:10:36 05:15:16 34° 294° (WNW) 05:19:54 435.822/435.867
SO-50 31 Aug 05:24:10 05:25:45 11° 23° (NNE) 05:27:20 436.795
BRITE-PL 31 Aug 05:25:34 05:28:43 15° 86° (E) 05:31:48 437.365/2234.400
RS-15 31 Aug 05:26:00 05:36:23 31° 350° (N) 05:47:02 29.354- 29.394
KKS-1 31 Aug 05:37:22 05:39:29 13° 271° (W) 05:41:36 437.445
STRAND 1 31 Aug 05:42:40 05:44:14 11° 54° (NE) 05:45:49 437.568
AO-85 31 Aug 05:52:23 05:57:32 56° 310° (NW) 06:02:23 145.980
Cosmos 2504 31 Aug 05:52:38 05:57:06 16° 77° (ENE) 06:01:26 435.465 / 435.565
CUBESAT XI-V 31 Aug 06:01:52 06:06:13 40° 263° (W) 06:10:36 437.345
STARS 31 Aug 06:02:23 06:04:42 14° 270° (W) 06:07:02 437.465
YUBILEINY 31 Aug 06:04:10 06:12:41 56° 90° (E) 06:21:12 435.215
NOAA 18 31 Aug 06:13:05 06:15:43 14° 88° (E) 06:18:20 137.9125
GOMX 1 31 Aug 06:19:31 06:23:23 20° 89° (E) 06:27:07 467.674
NOAA 15 31 Aug 06:27:34 06:32:01 27° 94° (E) 06:36:28 137.62
Cubesat XI-IV 31 Aug 06:28:42 06:32:45 22° 92° (E) 06:36:45 437.490
AO-7 31 Aug 06:34:05 06:41:29 38° 304° (WNW) 06:48:51 29.400- 29.500
CUTE-I 31 Aug 06:39:00 06:43:28 27° 94° (E) 06:47:54 437.470
LilacSat-2 31 Aug 06:41:03 06:44:08 23° 94° (E) 06:47:11 437.200
HORYU 2 31 Aug 06:45:26 06:49:46 54° 288° (WNW) 06:54:03 437.375
Cosmos 2491 31 Aug 06:46:37 06:54:33 39° 275° (W) 07:02:28 435.465 / 435.565
BRITE-PL 31 Aug 07:02:09 07:07:54 86° 288° (WNW) 07:13:27 437.365/2234.400
SO-50 31 Aug 07:03:07 07:07:31 40° 46° (NE) 07:11:47 436.795
STRAND 1 31 Aug 07:17:26 07:22:31 73° 73° (ENE) 07:27:37 437.568
AO-85 31 Aug 07:36:14 07:39:00 15° 330° (NNW) 07:41:40 145.980
Cosmos 2504 31 Aug 07:41:00 07:49:19 80° 96° (E) 07:57:04 435.465 / 435.565
RS-15 31 Aug 07:42:13 07:53:27 38° 25° (NNE) 08:04:40 29.354- 29.394
DOVE 4 31 Aug 07:43:27 07:48:22 52° 99° (E) 07:52:56 437.250
NOAA 18 31 Aug 07:51:36 07:57:06 87° 287° (WNW) 08:02:34 137.9125
CINEMA 3 31 Aug 07:56:24 07:59:33 19° 91° (E) 08:02:37 145.822/145.860
GOMX 1 31 Aug 07:56:35 08:01:54 59° 288° (WNW) 08:06:55 467.674
AIST 1 31 Aug 08:00:53 08:02:00 11° 82° (E) 08:03:07
ISS 31 Aug 08:01:16 08:04:23 42° 143° (SE) 08:07:32 145.825
YUBILEINY 31 Aug 08:01:50 08:09:50 37° 292° (WNW) 08:17:53 435.215
NOAA 15 31 Aug 08:06:55 08:11:58 45° 292° (WNW) 08:17:00 137.62
Cubesat XI-IV 31 Aug 08:07:57 08:13:09 55° 290° (WNW) 08:18:20 437.490
LilacSat-2 31 Aug 08:15:13 08:18:25 27° 291° (WNW) 08:21:38 437.200
CUTE-I 31 Aug 08:18:39 08:23:40 44° 292° (WNW) 08:28:42 437.470
HO-68 31 Aug 08:20:43 08:27:08 34° 96° (E) 08:33:30 435.675
AO-7 31 Aug 08:30:36 08:31:52 10° 327° (NNW) 08:33:09 29.400- 29.500
SEEDS 31 Aug 08:39:50 08:43:29 28° 95° (E) 08:47:08 437.485
BRITE-PL 31 Aug 08:42:14 08:45:30 16° 303° (WNW) 08:48:45 437.365/2234.400
SO-50 31 Aug 08:43:54 08:47:51 28° 245° (WSW) 08:51:41 436.795
PRISM 31 Aug 08:45:42 08:49:46 65° 74° (ENE) 08:53:53 437.425
BEESAT 2 31 Aug 08:48:40 08:51:11 17° 112° (ESE) 08:53:44 435.950
BEESAT 3 31 Aug 08:57:18 09:00:55 37° 118° (ESE) 09:04:35 437.485
STRAND 1 31 Aug 08:59:18 09:02:14 15° 271° (W) 09:05:10 437.568
AAUSAT CUBESAT 2 31 Aug 08:59:29 09:02:59 25° 94° (E) 09:06:27 437.432
CANX-2 31 Aug 09:09:13 09:13:29 86° 287° (WNW) 09:17:45 2200.000
COMPASS 1 31 Aug 09:11:15 09:15:15 42° 98° (E) 09:19:14 437.405
UWE-3 31 Aug 09:13:00 09:16:15 22° 93° (E) 09:19:28 435.000/436.395/437.385
UNISAT 6 31 Aug 09:13:10 09:16:01 17° 62° (ENE) 09:18:50 437.425
CUTE 1.7 + AOD 2 31 Aug 09:14:30 09:18:47 87° 278° (W) 09:23:02 437.475
ZACube-1 31 Aug 09:18:52 09:21:31 16° 91° (E) 09:24:08 437.345
DOVE 4 31 Aug 09:21:53 09:25:38 22° 298° (WNW) 09:29:14 437.250
CUBEBUG 2 31 Aug 09:23:25 09:27:25 41° 98° (E) 09:31:21 437.445
DANDE 31 Aug 09:28:03 09:31:53 18° 67° (ENE) 09:36:18 436.750
CINEMA 3 31 Aug 09:32:42 09:36:59 44° 290° (WNW) 09:41:04 145.822/145.860
NOAA 18 31 Aug 09:33:57 09:36:59 15° 305° (NW) 09:40:00 137.9125
CUSAT 1 31 Aug 09:34:13 09:40:38 47° 74° (ENE) 09:48:06 437.405
AIST 1 31 Aug 09:34:33 09:38:55 75° 280° (W) 09:43:20
Cosmos 2504 31 Aug 09:37:18 09:43:31 23° 296° (WNW) 09:49:29 435.465 / 435.565
ISS 31 Aug 09:37:45 09:40:53 40° 341° (NNW) 09:44:02 145.825
ANTELSAT 31 Aug 09:48:27 09:52:34 34° 69° (ENE) 09:56:37 437.575/2403.000
RS-15 31 Aug 09:55:32 10:08:01 84° 54° (NE) 10:20:16 29.354- 29.394
DELFI C3 31 Aug 10:04:22 10:07:28 21° 93° (E) 10:10:33 145.870
HO-68 31 Aug 10:08:12 10:15:05 52° 295° (WNW) 10:21:57 435.675
SEEDS 31 Aug 10:15:31 10:19:09 28° 292° (WNW) 10:22:46 437.485
Oscar 11 31 Aug 10:16:58 10:21:18 69° 103° (ESE) 10:25:36 145.826/435.025
TIGRISAT 31 Aug 10:17:44 10:22:15 64° 73° (ENE) 10:26:40 435.000
PRISM 31 Aug 10:23:54 10:25:31 12° 270° (W) 10:27:08 437.425
GONETS M04 31 Aug 10:24:07 10:29:31 18° 75° (ENE) 10:34:55
BEESAT 2 31 Aug 10:24:45 10:28:37 53° 309° (NW) 10:32:33 435.950
FUNcube-1 31 Aug 10:30:06 10:34:16 89° 104° (ESE) 10:38:24 145.935
QB50P1 31 Aug 10:32:39 10:35:18 16° 62° (ENE) 10:37:56 145.935-145.965
PCSat 31 Aug 10:33:11 10:37:14 22° 107° (ESE) 10:41:17 145.827
AAUSAT CUBESAT 2 31 Aug 10:34:47 10:38:28 31° 291° (WNW) 10:42:09 437.432
BEESAT 3 31 Aug 10:35:21 10:38:40 26° 317° (NW) 10:42:03 437.485
Cosmos 2499 31 Aug 10:38:23 10:42:20 15° 77° (ENE) 10:46:10 435.465 / 435.565
POPSAT HIP 1 31 Aug 10:42:32 10:45:38 20° 64° (ENE) 10:48:44 437.405
COMPASS 1 31 Aug 10:47:30 10:50:32 20° 295° (WNW) 10:53:33 437.405
UNISAT 6 31 Aug 10:47:48 10:52:18 60° 259° (W) 10:56:44 437.425
CANX-2 31 Aug 10:48:19 10:48:38 10° 301° (WNW) 10:48:57 2200.000
UWE-3 31 Aug 10:49:02 10:52:50 34° 291° (WNW) 10:56:35 435.000/436.395/437.385
CUTE 1.7 + AOD 2 31 Aug 10:53:27 10:53:54 10° 301° (WNW) 10:54:22 437.475
ZACube-1 31 Aug 10:54:06 10:58:05 46° 288° (WNW) 11:02:03 437.345
CUBEBUG 2 31 Aug 11:00:45 11:03:47 19° 296° (WNW) 11:06:46 437.445
HUMSAT D 31 Aug 11:04:19 11:08:17 46° 99° (E) 11:12:14 437.325/437.525
DUCHIFAT 1 31 Aug 11:04:36 11:08:16 29° 67° (ENE) 11:11:56 145.980
DANDE 31 Aug 11:09:17 11:14:59 86° 260° (W) 11:22:23 436.750
QB50P2 31 Aug 11:12:54 11:16:55 41° 70° (ENE) 11:20:57 145.880/145.840
JAS-2 31 Aug 11:13:11 11:17:33 26° 60° (ENE) 11:22:13 435.910
ISS 31 Aug 11:15:02 11:17:54 26° 2° (N) 11:20:45 145.825
POLYITAN 1 31 Aug 11:15:23 11:19:24 42° 71° (ENE) 11:23:27 437.675
CUSAT 1 31 Aug 11:16:24 11:22:35 39° 268° (W) 11:29:41 437.405
ESTCUBE 1 31 Aug 11:16:53 11:18:33 12° 88° (E) 11:20:13 437.505/2401.250
NANOSAT C BR1 31 Aug 11:20:02 11:24:05 44° 71° (ENE) 11:28:07 145.865
ANTELSAT 31 Aug 11:25:30 11:29:19 26° 265° (W) 11:33:05 437.575/2403.000
AIST 2 31 Aug 11:33:22 11:37:08 36° 118° (ESE) 11:40:57 435.215
DELFI C3 31 Aug 11:38:45 11:42:23 34° 290° (WNW) 11:46:02 145.870
BUGSAT 1 31 Aug 11:42:29 11:46:16 32° 68° (ENE) 11:50:02 437.445
CUBEBUG 1 31 Aug 11:45:21 11:47:57 15° 90° (E) 11:50:32 437.445
Oscar 19 31 Aug 11:52:21 11:54:17 12° 55° (NE) 11:56:13 437.125/150
VELOX 1 31 Aug 11:54:11 11:56:47 15° 90° (E) 11:59:23 145.980
Oscar 11 31 Aug 11:54:42 11:56:52 14° 299° (WNW) 11:59:04 145.826/435.025
TIGRISAT 31 Aug 11:56:53 11:59:20 14° 270° (W) 12:01:46 435.000
HO-68 31 Aug 11:58:34 12:01:14 12° 316° (NW) 12:03:53 435.675
DX 1 31 Aug 11:58:43 11:59:44 11° 88° (E) 12:00:45 434.975-435.025
BEESAT 2 31 Aug 12:06:15 12:07:21 11° 330° (NNW) 12:08:27 435.950
QB50P1 31 Aug 12:06:27 12:10:39 56° 260° (W) 12:14:52 145.935-145.965
AUBIESAT-1 31 Aug 12:07:46 12:11:15 29° 101° (E) 12:14:30 437.475
RS-15 31 Aug 12:09:06 12:19:14 32° 257° (WSW) 12:29:14 29.354- 29.394
FUNcube-1 31 Aug 12:09:46 12:09:49 10° 302° (WNW) 12:09:53 145.935
PCSat 31 Aug 12:14:47 12:20:10 62° 306° (NW) 12:25:34 145.827
GONETS M04 31 Aug 12:16:08 12:24:54 83° 96° (E) 12:33:47
M-CUBED/EXP-1 PRIME 31 Aug 12:16:54 12:20:50 46° 104° (ESE) 12:24:25 437.505
POPSAT HIP 1 31 Aug 12:17:02 12:21:07 44° 261° (W) 12:25:14 437.405
Cosmos 2499 31 Aug 12:26:18 12:34:18 79° 96° (E) 12:41:44 435.465 / 435.565
UKube-1 31 Aug 12:29:27 12:32:28 18° 92° (E) 12:35:27 .
O/OREOS (USA 219) 31 Aug 12:34:13 12:36:53 16° 99° (E) 12:39:33 437.305
DUCHIFAT 1 31 Aug 12:40:14 12:43:55 28° 264° (W) 12:47:36 145.980
HUMSAT D 31 Aug 12:40:53 12:43:35 17° 296° (WNW) 12:46:17 437.325/437.525
AO-85 31 Aug 12:42:20 12:46:21 34° 44° (NE) 12:50:05 145.980
AISAT 31 Aug 12:42:21 12:46:41 48° 100° (E) 12:50:59 437.250
QB50P2 31 Aug 12:49:46 12:52:54 20° 267° (W) 12:56:02 145.880/145.840
ESTCUBE 1 31 Aug 12:51:21 12:55:55 78° 286° (WNW) 13:00:27 437.505/2401.250
ISS 31 Aug 12:51:38 12:54:51 50° 22° (NNE) 12:58:04 145.825
50 SAT 31 Aug 12:52:02 12:55:39 61° 101° (ESE) 12:59:17 437.505
POLYITAN 1 31 Aug 12:52:17 12:55:24 19° 267° (W) 12:58:31 437.675
DANDE 31 Aug 12:53:59 12:57:22 15° 273° (W) 13:01:09 436.750
NANOSAT C BR1 31 Aug 12:57:01 13:00:01 19° 268° (W) 13:03:01 145.865
JAS-2 31 Aug 12:57:16 13:02:20 48° 262° (W) 13:07:52 435.910
AIST 2 31 Aug 13:12:05 13:15:41 28° 317° (NW) 13:19:19 435.215
ITAMSAT 1 31 Aug 13:16:51 13:17:43 10° 53° (NE) 13:18:36 435.822/435.867
SPROUT 31 Aug 13:18:01 13:22:16 59° 101° (E) 13:26:27 437.525
BUGSAT 1 31 Aug 13:18:06 13:21:39 25° 265° (W) 13:25:12 437.445
CUBEBUG 1 31 Aug 13:20:15 13:24:37 58° 287° (WNW) 13:28:56 437.445
TISAT 1 31 Aug 13:23:03 13:25:26 15° 91° (E) 13:27:48 437.305
Oscar 19 31 Aug 13:27:33 13:32:42 75° 73° (ENE) 13:37:55 437.125/150
VELOX 1 31 Aug 13:29:14 13:33:39 59° 287° (WNW) 13:38:01 145.980
DX 1 31 Aug 13:32:04 13:36:29 80° 285° (WNW) 13:40:52 434.975-435.025
Gurwin Techsat 1B 31 Aug 13:32:41 13:37:38 41° 68° (ENE) 13:42:36 435.225
AUBIESAT-1 31 Aug 13:42:20 13:45:37 25° 300° (WNW) 13:48:41 437.475
AO-7 31 Aug 13:52:06 13:58:28 25° 49° (NE) 14:04:50 29.400- 29.500
M-CUBED/EXP-1 PRIME 31 Aug 13:52:13 13:54:58 18° 304° (NW) 13:57:34 437.505
PCSat 31 Aug 14:01:29 14:04:41 16° 328° (NNW) 14:07:54 145.827
UKube-1 31 Aug 14:04:35 14:08:45 47° 289° (WNW) 14:12:54 .
O/OREOS (USA 219) 31 Aug 14:11:19 14:15:46 59° 297° (WNW) 14:20:17 437.305
GONETS M04 31 Aug 14:16:02 14:22:52 25° 299° (WNW) 14:29:48
AISAT 31 Aug 14:19:36 14:22:49 20° 297° (WNW) 14:26:01 437.250
Cosmos 2499 31 Aug 14:22:19 14:28:12 23° 296° (WNW) 14:33:50 435.465 / 435.565
AO-85 31 Aug 14:23:02 14:26:41 28° 245° (WSW) 14:30:07 145.980
ITUPSAT 1 31 Aug 14:25:46 14:28:21 14° 90° (E) 14:30:55 437.325
50 SAT 31 Aug 14:27:31 14:28:45 11° 298° (WNW) 14:29:58 437.505
ISS 31 Aug 14:28:17 14:31:13 30° 220° (SW) 14:34:08 145.825
ESTCUBE 1 31 Aug 14:31:19 14:31:55 10° 303° (WNW) 14:32:31 437.505/2401.250
ITAMSAT 1 31 Aug 14:51:05 14:56:12 65° 72° (ENE) 15:01:21 435.822/435.867
SPROUT 31 Aug 14:55:12 14:57:44 16° 299° (WNW) 15:00:16 437.525
SWISSCUBE 31 Aug 14:55:13 14:59:27 31° 96° (E) 15:03:40 437.505
TISAT 1 31 Aug 14:57:18 15:01:25 54° 288° (WNW) 15:05:29 437.305
Oscar 19 31 Aug 15:09:40 15:12:36 15° 271° (W) 15:15:34 437.125/150
DX 1 31 Aug 15:11:29 15:11:55 10° 303° (WNW) 15:12:21 434.975-435.025
